Time,TemperatureF,DewpointF,PressureIn,WindDirection,WindDirectionDegrees,WindSpeedMPH,WindSpeedGustMPH,Humidity,HourlyPrecipIn,Conditions,Clouds,dailyrainin,SoftwareType,DateUTC
2013-05-16 00:01:00,51.0,39.0,-100.00,WSW,256,6.0,9.0,65,0.00,,,-99.99,,2013-05-16 06:01:00,
2013-05-16 00:12:00,49.0,41.0,-100.00,WSW,251,15.0,21.0,73,0.00,,,-99.99,,2013-05-16 06:12:00,
2013-05-16 00:22:00,48.0,43.0,-100.00,West,267,23.0,29.0,84,0.03,,,-99.99,,2013-05-16 06:22:00,
2013-05-16 00:33:00,47.0,44.0,-100.00,West,265,19.0,25.0,90,0.03,,,-99.99,,2013-05-16 06:33:00,
2013-05-16 00:52:00,47.0,44.0,-100.00,WSW,258,11.0,14.0,87,0.00,,,-99.99,,2013-05-16 06:52:00,
2013-05-16 01:02:00,47.0,44.0,-100.00,WSW,251,9.0,12.0,90,0.00,,,-99.99,,2013-05-16 07:02:00,
2013-05-16 01:12:00,47.0,45.0,-100.00,WSW,239,8.0,10.0,90,0.00,,,-99.99,,2013-05-16 07:12:00,
2013-05-16 01:24:00,48.0,43.0,-100.00,SSW,203,12.0,17.0,84,0.00,,,-99.99,,2013-05-16 07:24:00,
2013-05-16 01:34:00,47.0,42.0,-100.00,SSW,198,14.0,17.0,82,0.00,,,-99.99,,2013-05-16 07:34:00,
2013-05-16 01:44:00,47.0,42.0,-100.00,SSW,199,12.0,17.0,83,0.00,,,-99.99,,2013-05-16 07:44:00,
2013-05-16 01:54:00,47.0,42.0,-100.00,SSW,209,14.0,20.0,82,0.00,,,-99.99,,2013-05-16 07:54:00,
2013-05-16 02:03:00,47.0,43.0,-100.00,SW,223,12.0,17.0,86,0.00,,,-99.99,,2013-05-16 08:03:00,
2013-05-16 02:13:00,47.0,42.0,-100.00,SSW,210,9.0,12.0,82,0.00,,,-99.99,,2013-05-16 08:13:00,
2013-05-16 02:23:00,47.0,42.0,-100.00,SW,220,11.0,19.0,81,0.00,,,-99.99,,2013-05-16 08:23:00,
2013-05-16 02:34:00,46.0,42.0,-100.00,WSW,257,10.0,13.0,87,0.00,,,-99.99,,2013-05-16 08:34:00,
2013-05-16 02:44:00,46.0,42.0,-100.00,WSW,246,9.0,12.0,87,0.00,,,-99.99,,2013-05-16 08:44:00,
2013-05-16 02:54:00,46.0,41.0,-100.00,WSW,250,8.0,11.0,81,0.00,,,-99.99,,2013-05-16 08:54:00,
2013-05-16 03:04:00,49.0,39.0,-100.00,SSW,196,20.0,27.0,69,0.00,,,-99.99,,2013-05-16 09:04:00,
2013-05-16 03:14:00,49.0,39.0,-100.00,SSW,193,19.0,29.0,68,0.00,,,-99.99,,2013-05-16 09:14:00,
2013-05-16 03:24:00,50.0,38.0,-100.00,SSW,195,16.0,21.0,64,0.00,,,-99.99,,2013-05-16 09:24:00,
2013-05-16 03:35:00,51.0,37.0,-100.00,SSW,199,19.0,26.0,60,0.00,,,-99.99,,2013-05-16 09:35:00,
2013-05-16 03:45:00,50.0,37.0,-100.00,SSW,198,21.0,27.0,62,0.00,,,-99.99,,2013-05-16 09:45:00,
2013-05-16 03:55:00,50.0,37.0,-100.00,SSW,199,18.0,24.0,61,0.00,,,-99.99,,2013-05-16 09:55:00,
2013-05-16 04:05:00,51.0,36.0,-100.00,SSW,202,16.0,22.0,58,0.00,,,-99.99,,2013-05-16 10:05:00,
2013-05-16 04:15:00,51.0,36.0,-100.00,SSW,203,17.0,22.0,57,0.00,,,-99.99,,2013-05-16 10:15:00,
2013-05-16 04:24:00,50.0,36.0,-100.00,SSW,193,14.0,19.0,60,0.00,,,-99.99,,2013-05-16 10:24:00,
2013-05-16 04:36:00,50.0,36.0,-100.00,SSW,193,20.0,25.0,59,0.00,,,-99.99,,2013-05-16 10:36:00,
2013-05-16 04:45:00,50.0,36.0,-100.00,SSW,193,20.0,26.0,58,0.00,,,-99.99,,2013-05-16 10:45:00,
2013-05-16 04:56:00,50.0,35.0,-100.00,SSW,196,17.0,20.0,57,0.00,,,-99.99,,2013-05-16 10:56:00,
2013-05-16 05:05:00,51.0,35.0,-100.00,SSW,200,15.0,19.0,54,0.00,,,-99.99,,2013-05-16 11:05:00,
2013-05-16 05:14:00,51.0,36.0,-100.00,SSW,202,14.0,18.0,57,0.00,,,-99.99,,2013-05-16 11:14:00,
2013-05-16 05:25:00,50.0,36.0,-100.00,SSW,198,14.0,17.0,58,0.00,,,-99.99,,2013-05-16 11:25:00,
2013-05-16 05:35:00,50.0,36.0,-100.00,SSW,198,14.0,17.0,58,0.00,,,-99.99,,2013-05-16 11:35:00,
2013-05-16 05:46:00,51.0,35.0,-100.00,SSW,205,12.0,16.0,53,0.00,,,-99.99,,2013-05-16 11:46:00,
2013-05-16 05:56:00,50.0,36.0,-100.00,SSW,202,11.0,15.0,58,0.00,,,-99.99,,2013-05-16 11:56:00,
2013-05-16 06:06:00,51.0,35.0,-100.00,SSW,205,12.0,18.0,53,0.00,,,-99.99,,2013-05-16 12:06:00,
2013-05-16 06:13:00,52.0,35.0,-100.00,SSW,212,14.0,19.0,53,0.00,,,-99.99,,2013-05-16 12:13:00,
2013-05-16 06:23:00,51.0,36.0,-100.00,SSW,210,13.0,17.0,55,0.00,,,-99.99,,2013-05-16 12:23:00,
2013-05-16 06:34:00,50.0,36.0,-100.00,SSW,206,11.0,16.0,59,0.00,,,-99.99,,2013-05-16 12:34:00,
2013-05-16 06:45:00,49.0,36.0,-100.00,SSW,198,13.0,17.0,59,0.00,,,-99.99,,2013-05-16 12:45:00,
2013-05-16 06:53:00,50.0,36.0,-100.00,SSW,199,14.0,18.0,57,0.00,,,-99.99,,2013-05-16 12:53:00,
2013-05-16 07:04:00,51.0,36.0,-100.00,SSW,205,14.0,18.0,55,0.00,,,-99.99,,2013-05-16 13:04:00,
2013-05-16 07:12:00,51.0,36.0,-100.00,SSW,210,15.0,18.0,54,0.00,,,-99.99,,2013-05-16 13:12:00,
2013-05-16 07:26:00,52.0,36.0,-100.00,SW,216,14.0,19.0,54,0.00,,,-99.99,,2013-05-16 13:26:00,
2013-05-16 07:35:00,52.0,36.0,-100.00,SSW,213,16.0,20.0,54,0.00,,,-99.99,,2013-05-16 13:35:00,
2013-05-16 07:43:00,53.0,36.0,-100.00,SSW,209,17.0,22.0,52,0.00,,,-99.99,,2013-05-16 13:43:00,
2013-05-16 07:55:00,54.0,36.0,-100.00,SSW,208,19.0,24.0,52,0.00,,,-99.99,,2013-05-16 13:55:00,
2013-05-16 08:05:00,54.0,36.0,-100.00,SSW,206,19.0,24.0,52,0.00,,,-99.99,,2013-05-16 14:05:00,
2013-05-16 08:15:00,55.0,37.0,-100.00,SSW,213,17.0,22.0,52,0.00,,,-99.99,,2013-05-16 14:15:00,
2013-05-16 08:23:00,55.0,36.0,-100.00,SW,217,17.0,24.0,48,0.00,,,-99.99,,2013-05-16 14:23:00,
2013-05-16 08:37:00,56.0,36.0,-100.00,SW,227,16.0,21.0,48,0.00,,,-99.99,,2013-05-16 14:37:00,
2013-05-16 08:47:00,56.0,36.0,-100.00,SW,222,17.0,23.0,47,0.00,,,-99.99,,2013-05-16 14:47:00,
2013-05-16 08:55:00,56.0,36.0,-100.00,SW,232,17.0,24.0,46,0.00,,,-99.99,,2013-05-16 14:55:00,
2013-05-16 09:08:00,56.0,36.0,-100.00,SW,229,21.0,29.0,46,0.00,,,-99.99,,2013-05-16 15:08:00,
2013-05-16 09:17:00,57.0,36.0,-100.00,SW,234,21.0,30.0,45,0.00,,,-99.99,,2013-05-16 15:17:00,
2013-05-16 09:28:00,57.0,36.0,-100.00,SW,234,22.0,30.0,44,0.00,,,-99.99,,2013-05-16 15:28:00,
2013-05-16 09:40:00,57.0,35.0,-100.00,SW,230,24.0,32.0,44,0.00,,,-99.99,,2013-05-16 15:40:00,
2013-05-16 09:50:00,57.0,36.0,-100.00,SW,230,21.0,31.0,44,0.00,,,-99.99,,2013-05-16 15:50:00,
2013-05-16 10:00:00,57.0,36.0,-100.00,SW,233,21.0,27.0,44,0.00,,,-99.99,,2013-05-16 16:00:00,
2013-05-16 10:09:00,58.0,37.0,-100.00,WSW,243,23.0,31.0,45,0.00,,,-99.99,,2013-05-16 16:09:00,
2013-05-16 10:19:00,58.0,36.0,-100.00,SW,234,23.0,30.0,44,0.00,,,-99.99,,2013-05-16 16:19:00,
2013-05-16 10:30:00,58.0,35.0,-100.00,WSW,239,22.0,32.0,42,0.00,,,-99.99,,2013-05-16 16:30:00,
2013-05-16 10:40:00,58.0,-99.9,-100.00,WSW,246,18.0,26.0,43,0.00,,,-99.99,,2013-05-16 16:40:00,
2013-05-16 10:50:00,58.0,36.0,-100.00,WSW,250,18.0,27.0,44,0.00,,,-99.99,,2013-05-16 16:50:00,
2013-05-16 11:00:00,59.0,35.0,-100.00,SW,233,21.0,26.0,40,0.00,,,-99.99,,2013-05-16 17:00:00,
2013-05-16 11:10:00,60.0,37.0,-100.00,WSW,240,18.0,23.0,42,0.00,,,-99.99,,2013-05-16 17:10:00,
2013-05-16 11:20:00,60.0,35.0,-100.00,WSW,243,19.0,28.0,39,0.00,,,-99.99,,2013-05-16 17:20:00,
2013-05-16 11:30:00,60.0,36.0,-100.00,WSW,244,20.0,29.0,41,0.00,,,-99.99,,2013-05-16 17:30:00,
2013-05-16 11:40:00,60.0,36.0,-100.00,WSW,244,17.0,26.0,41,0.00,,,-99.99,,2013-05-16 17:40:00,
2013-05-16 11:50:00,60.0,-99.9,-100.00,WSW,251,21.0,27.0,37,0.00,,,-99.99,,2013-05-16 17:50:00,
2013-05-16 12:00:00,60.0,-99.9,-100.00,West,260,21.0,27.0,39,0.00,,,-99.99,,2013-05-16 18:00:00,
2013-05-16 12:10:00,60.0,32.0,-100.00,WSW,253,22.0,30.0,34,0.00,,,-99.99,,2013-05-16 18:10:00,
2013-05-16 12:20:00,62.0,35.0,-100.00,WSW,250,21.0,29.0,36,0.00,,,-99.99,,2013-05-16 18:20:00,
2013-05-16 12:30:00,-999.0,-99.9,-100.00,WSW,246,23.0,34.0,36,0.00,,,-99.99,,2013-05-16 18:30:00,
2013-05-16 12:40:00,-999.0,-99.9,-100.00,WSW,241,24.0,32.0,37,0.00,,,-99.99,,2013-05-16 18:40:00,
2013-05-16 13:00:00,-999.0,-99.9,-100.00,WSW,240,22.0,30.0,37,0.00,,,-99.99,,2013-05-16 19:00:00,
2013-05-16 13:10:00,63.0,35.0,-100.00,WSW,244,17.0,26.0,35,0.00,,,-99.99,,2013-05-16 19:10:00,
2013-05-16 13:20:00,63.0,29.0,-100.00,WSW,250,20.0,31.0,28,0.00,,,-99.99,,2013-05-16 19:20:00,
2013-05-16 13:30:00,65.0,29.0,-100.00,SW,236,23.0,34.0,25,0.00,,,-99.99,,2013-05-16 19:30:00,
2013-05-16 13:40:00,65.0,-99.9,-100.00,SW,234,21.0,34.0,28,0.00,,,-99.99,,2013-05-16 19:40:00,
2013-05-16 13:50:00,-999.0,-99.9,-100.00,WSW,243,24.0,34.0,29,0.00,,,-99.99,,2013-05-16 19:50:00,
2013-05-16 14:00:00,65.0,-99.9,-100.00,WSW,246,21.0,33.0,28,0.00,,,-99.99,,2013-05-16 20:00:00,
2013-05-16 14:10:00,-999.0,-99.9,-100.00,WSW,258,21.0,29.0,25,0.00,,,-99.99,,2013-05-16 20:10:00,
2013-05-16 14:20:00,65.0,-99.9,-100.00,West,261,26.0,38.0,25,0.00,,,-99.99,,2013-05-16 20:20:00,
2013-05-16 14:30:00,65.0,28.0,-100.00,WSW,258,25.0,34.0,24,0.00,,,-99.99,,2013-05-16 20:30:00,
2013-05-16 14:40:00,-999.0,-99.9,-100.00,WSW,254,25.0,39.0,22,0.00,,,-99.99,,2013-05-16 20:40:00,
2013-05-16 14:50:00,66.0,23.0,-100.00,WSW,256,26.0,34.0,19,0.00,,,-99.99,,2013-05-16 20:50:00,
2013-05-16 15:00:00,66.0,23.0,-100.00,WSW,247,24.0,34.0,19,0.00,,,-99.99,,2013-05-16 21:00:00,
2013-05-16 15:10:00,65.0,-99.9,-100.00,WSW,239,23.0,32.0,21,0.00,,,-99.99,,2013-05-16 21:10:00,
2013-05-16 15:20:00,67.0,-99.9,-100.00,WSW,241,23.0,32.0,22,0.00,,,-99.99,,2013-05-16 21:20:00,
2013-05-16 15:29:00,67.0,25.0,-100.00,WSW,240,22.0,30.0,21,0.00,,,-99.99,,2013-05-16 21:29:00,
2013-05-16 15:38:00,67.0,27.0,-100.00,WSW,237,22.0,32.0,22,0.00,,,-99.99,,2013-05-16 21:38:00,
2013-05-16 15:50:00,66.0,-99.9,-100.00,WSW,256,21.0,29.0,22,0.00,,,-99.99,,2013-05-16 21:50:00,
2013-05-16 16:00:00,-999.0,-99.9,-100.00,WSW,258,27.0,36.0,21,0.00,,,-99.99,,2013-05-16 22:00:00,
2013-05-16 16:08:00,62.0,32.0,-100.00,West,278,40.0,50.0,33,0.00,,,-99.99,,2013-05-16 22:08:00,
2013-05-16 16:20:00,61.0,33.0,-100.00,West,274,38.0,50.0,35,0.00,,,-99.99,,2013-05-16 22:20:00,
2013-05-16 16:30:00,60.0,35.0,-100.00,West,274,32.0,40.0,40,0.00,,,-99.99,,2013-05-16 22:30:00,
2013-05-16 16:40:00,59.0,35.0,-100.00,West,281,29.0,35.0,40,0.00,,,-99.99,,2013-05-16 22:40:00,
2013-05-16 16:50:00,61.0,34.0,-100.00,West,278,25.0,34.0,37,0.00,,,-99.99,,2013-05-16 22:50:00,
2013-05-16 17:00:00,62.0,34.0,-100.00,West,272,22.0,29.0,36,0.00,,,-99.99,,2013-05-16 23:00:00,
2013-05-16 17:06:00,62.0,33.0,-100.00,West,274,21.0,27.0,33,0.00,,,-99.99,,2013-05-16 23:06:00,
2013-05-16 17:16:00,63.0,32.0,-100.00,West,275,21.0,27.0,32,0.00,,,-99.99,,2013-05-16 23:16:00,
2013-05-16 17:24:00,62.0,30.0,-100.00,West,270,23.0,31.0,29,0.00,,,-99.99,,2013-05-16 23:24:00,
2013-05-16 17:35:00,63.0,31.0,-100.00,West,263,21.0,28.0,30,0.00,,,-99.99,,2013-05-16 23:35:00,
2013-05-16 17:45:00,63.0,31.0,-100.00,WSW,258,22.0,28.0,31,0.00,,,-99.99,,2013-05-16 23:45:00,
2013-05-16 17:54:00,61.0,31.0,-100.00,West,263,21.0,26.0,31,0.00,,,-99.99,,2013-05-16 23:54:00,
2013-05-16 18:02:00,61.0,31.0,-100.00,WSW,258,17.0,26.0,32,0.00,,,-99.99,,2013-05-17 00:02:00,
2013-05-16 18:13:00,61.0,31.0,-100.00,WSW,257,14.0,21.0,32,0.00,,,-99.99,,2013-05-17 00:13:00,
2013-05-16 18:22:00,62.0,33.0,-100.00,SW,223,7.0,12.0,34,0.00,,,-99.99,,2013-05-17 00:22:00,
2013-05-16 18:33:00,62.0,33.0,-100.00,SW,223,7.0,11.0,33,0.00,,,-99.99,,2013-05-17 00:33:00,
2013-05-16 18:43:00,62.0,33.0,-100.00,SW,216,8.0,13.0,33,0.00,,,-99.99,,2013-05-17 00:43:00,
2013-05-16 18:52:00,62.0,32.0,-100.00,SW,223,16.0,21.0,32,0.00,,,-99.99,,2013-05-17 00:52:00,
2013-05-16 19:03:00,62.0,32.0,-100.00,SSW,202,14.0,19.0,33,0.00,,,-99.99,,2013-05-17 01:03:00,
2013-05-16 19:12:00,62.0,31.0,-100.00,SSW,206,16.0,20.0,31,0.00,,,-99.99,,2013-05-17 01:12:00,
2013-05-16 19:23:00,59.0,34.0,-100.00,South,186,21.0,27.0,38,0.00,,,-99.99,,2013-05-17 01:23:00,
2013-05-16 19:32:00,58.0,34.0,-100.00,South,181,21.0,26.0,40,0.00,,,-99.99,,2013-05-17 01:32:00,
2013-05-16 19:43:00,58.0,34.0,-100.00,South,184,18.0,24.0,40,0.00,,,-99.99,,2013-05-17 01:43:00,
2013-05-16 19:52:00,58.0,35.0,-100.00,South,189,16.0,21.0,42,0.00,,,-99.99,,2013-05-17 01:52:00,
2013-05-16 20:02:00,58.0,33.0,-100.00,SSW,199,16.0,23.0,40,0.00,,,-99.99,,2013-05-17 02:02:00,
2013-05-16 20:11:00,57.0,34.0,-100.00,SSW,206,17.0,21.0,42,0.00,,,-99.99,,2013-05-17 02:11:00,
2013-05-16 20:21:00,56.0,35.0,-100.00,SSW,210,14.0,18.0,44,0.00,,,-99.99,,2013-05-17 02:21:00,
2013-05-16 20:32:00,56.0,35.0,-100.00,SW,220,13.0,17.0,44,0.00,,,-99.99,,2013-05-17 02:32:00,
2013-05-16 20:42:00,55.0,36.0,-100.00,SW,227,12.0,19.0,47,0.00,,,-99.99,,2013-05-17 02:42:00,
2013-05-16 20:53:00,56.0,35.0,-100.00,SW,234,11.0,15.0,46,0.00,,,-99.99,,2013-05-17 02:53:00,
2013-05-16 21:02:00,55.0,36.0,-100.00,WSW,240,12.0,16.0,49,0.00,,,-99.99,,2013-05-17 03:02:00,
2013-05-16 21:11:00,54.0,36.0,-100.00,WSW,254,11.0,17.0,50,0.00,,,-99.99,,2013-05-17 03:11:00,
2013-05-16 21:22:00,53.0,36.0,-100.00,WSW,243,12.0,18.0,52,0.00,,,-99.99,,2013-05-17 03:22:00,
2013-05-16 21:34:00,52.0,37.0,-100.00,SW,220,11.0,12.0,55,0.00,,,-99.99,,2013-05-17 03:34:00,
2013-05-16 21:43:00,52.0,37.0,-100.00,SW,222,10.0,13.0,55,0.00,,,-99.99,,2013-05-17 03:43:00,
2013-05-16 21:53:00,53.0,36.0,-100.00,SW,224,11.0,13.0,53,0.00,,,-99.99,,2013-05-17 03:53:00,
2013-05-16 22:02:00,52.0,37.0,-100.00,SW,216,10.0,12.0,56,0.00,,,-99.99,,2013-05-17 04:02:00,
2013-05-16 22:13:00,52.0,36.0,-100.00,SSW,196,12.0,15.0,55,0.00,,,-99.99,,2013-05-17 04:13:00,
2013-05-16 22:23:00,52.0,37.0,-100.00,South,189,12.0,15.0,56,0.00,,,-99.99,,2013-05-17 04:23:00,
2013-05-16 22:33:00,51.0,37.0,-100.00,South,182,11.0,14.0,57,0.00,,,-99.99,,2013-05-17 04:33:00,
2013-05-16 22:43:00,51.0,36.0,-100.00,South,181,12.0,15.0,57,0.00,,,-99.99,,2013-05-17 04:43:00,
2013-05-16 22:53:00,51.0,36.0,-100.00,South,185,12.0,15.0,58,0.00,,,-99.99,,2013-05-17 04:53:00,
2013-05-16 23:03:00,51.0,36.0,-100.00,South,188,12.0,14.0,58,0.00,,,-99.99,,2013-05-17 05:03:00,
2013-05-16 23:14:00,50.0,36.0,-100.00,South,185,12.0,14.0,58,0.00,,,-99.99,,2013-05-17 05:14:00,
2013-05-16 23:22:00,54.0,35.0,-100.00,South,171,13.0,16.0,50,0.00,,,-99.99,,2013-05-17 05:22:00,
2013-05-16 23:32:00,52.0,35.0,-100.00,South,185,12.0,16.0,52,0.00,,,-99.99,,2013-05-17 05:32:00,
2013-05-16 23:42:00,52.0,36.0,-100.00,South,182,12.0,15.0,53,0.00,,,-99.99,,2013-05-17 05:42:00,
2013-05-16 23:52:00,53.0,35.0,-100.00,South,181,11.0,16.0,49,0.00,,,-99.99,,2013-05-17 05:52:00,